Location: Unspecified
(47.9110°N, 14.3980°E)
Time: 00:02:02
(UTC+00:00)

Cosmos 972 Rocket - Pass Details

Date: 06 August 2020
Orbit: 713 x 1151 km, 75.8° (Epoch: 23 September)

Event Time Altitude Azimuth Distance (km) Brightness Sun altitude
Rises 19:01:32 0° 341° (NNW) 3,274 8.2 -5.5°
Reaches altitude 10° 19:04:00 10° 345° (NNW) 2,296 7.3 -5.8°
Maximum altitude 19:09:05 66° 68° (ENE) 793 4.0 -6.5°
Drops below altitude 10° 19:13:55 10° 151° (SSE) 2,188 5.8 -7.2°
Enters shadow 19:14:52 - 152° (SSE) 2,559 6.2 -7.3°
